Home   Weather   Brăila   Past weeks

Flag for Romania Past Weather in Brăila, Romania — Yesterday and Last 2 Weeks

Now
37 °F

Passing clouds.


Feels Like: 31 °F
Forecast: 27 / 42 °F
Wind: 8 mph from Northwest

Location: Galati

Current Time: Dec 2, 2016 at 10:02:18 pm

Latest Report: Dec 2, 2016 at 9:00 pm


Visibility: 6 mi

Pressure: 29.63 "Hg

Humidity: 78%

Dew Point: 30 °F

Location of BrăilaLocation

Past Weather in Brăila — Graph

°F

Brăila Temperature Yesterday

Maximum temperature yesterday: 32 °F (at 3:00 pm)
Minimum temperature yesterday: 26 °F (at 6:00 am)
Average temperature yesterday: 29 °F

High & Low Weather Summary for the Past Weeks

 TemperatureHumidityPressure
High55 °F (Nov 18, 3:00 pm)100% (Nov 19, 7:00 am)30.49 "Hg (Nov 19, 7:00 am)
Low23 °F (Nov 30, 8:00 am)54% (Nov 28, 2:00 pm)29.41 "Hg (Dec 2, 2:00 pm)
Average38 °F87%30.21 "Hg
* Reported Nov 17 9:00 pm — Dec 2 9:00 pm, Brăila, Weather by CustomWeather, © 2016

Note: Actual official high and low records may vary slightly from our data, if they occured in-between our weather recording intervals... More about our weather records

Advertising

Brăila Weather History for the Previous 24 Hours

Scroll right to see more
 ConditionsComfort  
Time TempWeatherWind HumidityBarometerVisibility
9:00 pm
Fri, Dec 2
37 °FPassing clouds.8 mph78%29.63 "Hg6 mi
8:00 pm38 °FOvercast.8 mph86%29.57 "Hg6 mi
7:00 pm38 °FPassing clouds.6 mph82%29.53 "Hg6 mi
3:00 pm37 °FOvercast.3 mph88%29.41 "Hg6 mi
2:00 pm37 °FOvercast.2 mph89%29.41 "Hg6 mi
1:00 pm36 °FOvercast.5 mph89%29.44 "Hg6 mi
12:00 pm35 °FFog.5 mph92%29.47 "Hg2 mi
11:00 am34 °FFog.5 mph95%29.50 "Hg2 mi
10:00 am34 °FFog.6 mph95%29.50 "Hg2 mi
9:00 am33 °FFog.5 mph95%29.56 "Hg1 mi
8:00 am32 °FFog.5 mph97%29.59 "Hg1 mi
7:00 am31 °FFog.5 mph98%29.62 "Hg1 mi
6:00 am31 °FFog.5 mph100%29.67 "Hg1 mi
5:00 am30 °FFog.3 mph100%29.70 "Hg1 mi
4:00 am30 °FFog.5 mph100%29.73 "Hg1 mi
3:00 am30 °FFog.5 mph98%29.76 "Hg2 mi
2:00 am29 °FFog.5 mph93%29.79 "Hg2 mi
1:00 am29 °FClear.3 mph87%29.82 "Hg6 mi
12:00 am29 °FClear.3 mph86%29.86 "Hg6 mi
11:00 pm
Thu, Dec 1
29 °FFog.2 mph90%29.89 "Hg2 mi
10:00 pm30 °FFog.2 mph91%29.91 "Hg2 mi
Weather by CustomWeather, © 2016

See weather overviewHow to use our weather pages